Find Starlink 38236

NORAD ID: 100312 Int'l Des: 2026-184 Owner: SPXS Country: US Constellation: starlink operational

Aktuelle Ansicht

3D-Globus wird geladen...

About Starlink 38236

Starlink 38236 (NORAD 100312) is a starlink constellation satellite launched Aug 12, 2026 by SPXS of US. with a mass of 575.00 kg.

Nächste Überflüge

Passes for default location (London). Set your location on the main map for personalized predictions.

Höhenverlauf

Loading altitude history...

Zweizeiliger Elementsatz

1 A0312U 26184M 26249.62331262 .00031137 00000-0 57179-3 0 9992
2 A0312 97.2843 114.7866 0001454 95.5086 264.6331 15.49195008 5227
Epoch: 6. Sept. 2026 • Age: 6 hours

Aktueller Status

Höhe 435.2 km
Apogäum / Perigäum N/A
Geschwindigkeit 7.65 km/s
Subsatellitenpunkt -40.14°S, 179.57°W
Startdatum 12. Aug. 2026
Alter 25 days
Typ internet

Technische Details

Klassifizierung Payload
Masse 575.00 kg
Trockenmasse 530.00 kg
Gesamtmasse 575.00 kg
Länge 0.30 m
Durchmesser 4.10 m
Spannweite 29.00 m
Form Box + pan
Hersteller SPXS
Bus-Typ Starlink V2MO
Phasenstatus In Orbit
Besitzer/Staat SPXS/US

Most Searched